Port Weller, Ontario

1:43 AM EDT on April 25, 2017 (GMT -0400)
Port Weller

Weather History for CWWZ - September, 2012

Change the Weather History Date:

Saturday, September 8, 2012

  Actual Average (CYSN) Record (CYSN)
Temperature  
Mean Temperature 68 °F -  
Max Temperature 74 °F 73 °F 91 °F (2002)
Min Temperature 63 °F 57 °F 50 °F (1997)
Cooling Degree Days 4    
Growing Degree Days 18 (Base 50)    
Moisture  
Dew Point 59 °F    
Average Humidity 74    
Maximum Humidity 93    
Minimum Humidity 47    
Precipitation  
Precipitation 1.10 in - - ()
Sea Level Pressure  
Sea Level Pressure 29.60 in    
Wind  
Wind Speed 12 mph ()    
Max Wind Speed 30 mph    
Max Gust Speed 40 mph    
Averages and records for this station are not official NWS values.
T = Trace of Precipitation, MM = Missing Value Source: Averaged Metar Reports

Daily Weather History Graph

Daily Weather History Graph

Search for Another Location

Airport or City:

Trip Planner

Search our weather history database for the weather conditions in past years. The results will help you decide how hot, cold, wet, or windy it might be!

Date:

Astronomy

Sep. 08, 2012 Rise Set
Actual Time 6:49 AM EDT 7:38 PM EDT
Civil Twilight 6:20 AM EDT 8:07 PM EDT
Nautical Twilight 5:45 AM EDT 8:41 PM EDT
Astronomical Twilight 5:10 AM EDT 9:17 PM EDT
Moon No Moon Rise 2:41 PM EDT (9/8)
Length of Visible Light 13h 47m
Length of Day
12h 49m
Waning Gibbous, 49% of the Moon is Illuminated
Sep 8
Waning Gibbous
Sep 15
New
Sep 22
First Quarter
Sep 29
Full
Oct 8
Last Quarter

Hourly Weather History & Observations

Time (EDT) Temp. Dew Point Humidity Pressure Visibility Wind Dir Wind Speed Gust Speed Precip Events Conditions
1:00 AM 73.8 °F 65.1 °F 74% 29.62 in - South 8.1 mph - N/A   Unknown
2:00 AM 74.5 °F 63.5 °F 68% 29.61 in - South 10.4 mph - N/A   Unknown
3:00 AM 70.3 °F 65.8 °F 86% 29.62 in - West 16.1 mph - 0.09 in   Unknown
4:00 AM 69.3 °F 64.4 °F 84% 29.56 in - SSW 2.3 mph - N/A   Unknown
5:00 AM 67 °F 65 °F 92% 29.57 in - South 9.2 mph - -  
5:00 AM 67.5 °F 65.1 °F 92% 29.57 in - South 9.2 mph - 0.26 in   Unknown
6:00 AM 68.0 °F 65.8 °F 93% 29.51 in - South 5.8 mph - 0.24 in   Unknown
7:00 AM 67.8 °F 65.8 °F 93% 29.47 in - SSE 3.5 mph - 0.30 in   Unknown
8:00 AM 68 °F 65 °F 87% 29.45 in - SSE 5.8 mph - -  
8:00 AM 67.6 °F 65.1 °F 92% 29.45 in - SSE 5.8 mph - 0.19 in   Unknown
9:00 AM 64.2 °F 61.9 °F 92% 29.46 in - NW 26.5 mph 40.3 mph 0.25 in   Unknown
10:00 AM 63.7 °F 60.4 °F 89% 29.52 in - NNW 27.6 mph 34.5 mph 0.44 in   Unknown
11:00 AM 64 °F 58 °F 75% 29.52 in - NNW 9.2 mph - -  
11:00 AM 63.7 °F 57.9 °F 81% 29.52 in - NNW 9.2 mph - 0.05 in   Unknown
12:00 PM 64.4 °F 59.0 °F 83% 29.55 in - West 13.8 mph - N/A   Unknown
1:00 PM 65.1 °F 60.6 °F 85% 29.56 in - WSW 5.8 mph - 0.03 in   Unknown
2:00 PM 67 °F 58 °F 66% 29.57 in - West 24.2 mph - -  
2:00 PM 67.5 °F 58.1 °F 72% 29.57 in - West 24.2 mph - N/A   Unknown
3:00 PM 69.6 °F 59.0 °F 69% 29.58 in - West 25.3 mph - N/A   Unknown
4:00 PM 69.4 °F 56.5 °F 63% 29.60 in - WNW 29.9 mph 38.0 mph N/A   Unknown
5:00 PM 70 °F 54 °F 47% 29.63 in - NW 16.1 mph - -  
5:00 PM 70.0 °F 54.0 °F 57% 29.63 in - NW 16.1 mph - N/A   Unknown
6:00 PM 69.6 °F 51.8 °F 53% 29.67 in - West 23.0 mph - N/A   Unknown
7:00 PM 68.2 °F 53.2 °F 59% 29.68 in - WNW 16.1 mph - N/A   Unknown
8:00 PM 68 °F 53 °F 49% 29.70 in - West 19.6 mph - -  
8:00 PM 67.6 °F 53.2 °F 60% 29.70 in - West 19.6 mph - N/A   Unknown
9:00 PM 67.3 °F 53.2 °F 61% 29.73 in - WNW 18.4 mph - N/A   Unknown
10:00 PM 66.9 °F 54.5 °F 64% 29.76 in - West 16.1 mph - N/A   Unknown
11:00 PM 65 °F 56 °F 66% 29.77 in - NW 21.9 mph - -  
11:00 PM 65.3 °F 56.3 °F 73% 29.77 in - NW 21.9 mph - N/A   Unknown